This is the latest recevied weather packets stored in our database for station/object WW5JC. If no packets are shown the sender has not sent any weather packets the latest 10 day(s).
| Time | Temp. | Humidity | Pressure | Rain* | Wind** | Luminosity | Snow |
|---|---|---|---|---|---|---|---|
| 1788531790 | 28.89° C | 82% | 1017.5 hPa | 0 mm | - | 243 W/m² | - |
| 1788531490 | 28.33° C | 83% | 1017.3 hPa | 0 mm | - | 230 W/m² | - |
| 1788531185 | 28.33° C | 84% | 1017.2 hPa | 0 mm | - | 50 W/m² | - |
| 1788530881 | 27.78° C | 84% | 1017.2 hPa | 0 mm | - | 202 W/m² | - |
| 1788530576 | 27.78° C | 84% | 1017.2 hPa | 0 mm | - | 44 W/m² | - |
| 1788530274 | 27.22° C | 86% | 1017.3 hPa | 0 mm | - | 177 W/m² | - |
| 1788529970 | 27.22° C | 86% | 1017.2 hPa | 0 mm | - | 43 W/m² | - |
| 1788529666 | 27.22° C | 87% | 1017.2 hPa | 0 mm | - | 42 W/m² | - |
| 1788529365 | 26.67° C | 86% | 1017.3 hPa | 0 mm | - | 42 W/m² | - |
| 1788529061 | 26.67° C | 87% | 1017.4 hPa | 0 mm | - | 42 W/m² | - |
| 1788528757 | 26.67° C | 87% | 1017.3 hPa | 0 mm | - | 40 W/m² | - |
| 1788528456 | 26.11° C | 87% | 1017 hPa | 0 mm | - | 89 W/m² | - |
| 1788528151 | 26.11° C | 87% | 1017.2 hPa | 0 mm | - | 80 W/m² | - |
| 1788527850 | 25.56° C | 88% | 1017.1 hPa | 0 mm | - | 44 W/m² | - |
| 1788527546 | 25.56° C | 88% | 1017.2 hPa | 0 mm | - | 77 W/m² | - |
| 1788527241 | 25.56° C | 88% | 1017.2 hPa | 0 mm | - | 66 W/m² | - |
| 1788526940 | 25° C | 88% | 1017.3 hPa | 0 mm | - | 59 W/m² | - |
| 1788526637 | 25° C | 89% | 1017.1 hPa | 0 mm | - | 52 W/m² | - |
| 1788526362 | 24.44° C | 90% | 1017.2 hPa | 0 mm | - | 45 W/m² | - |
| 1788526032 | 23.89° C | 93% | 1017 hPa | 0 mm | - | 39 W/m² | - |
| 1788525728 | 23.33° C | 93% | 1017.2 hPa | 0 mm | - | 34 W/m² | - |
| 1788525422 | 23.33° C | 93% | 1017.1 hPa | 0 mm | - | 24 W/m² | - |
| 1788525118 | 22.78° C | 94% | 1017 hPa | 0 mm | - | 21 W/m² | - |
| 1788524813 | 22.78° C | 94% | 1017 hPa | 0 mm | - | 19 W/m² | - |
| 1788524508 | 22.78° C | 94% | 1016.8 hPa | 0 mm | - | 16 W/m² | - |
* Rain latest hour (hover to see other rain measurements)
** Current wind speed in m/s (hover to see current wind gust speed)